K9APR Weather Reports


Display with metric or nautical units.
time (UTC)temp
F
wind
direction
speed
MPH
gust
MPH
rain 1hr
in
rain 24hr
in
rain mn
in
humidity
%
barometer
mb
20260505002320 72 200 9.0 10.0 0.00 0.00 0.00 51 1004.0
20260505001421 72 181 7.0 10.0 0.00 0.00 0.00 51 1004.0
20260505000521 72 170 7.0 9.0 0.00 0.00 0.00 51 1004.2
20260504235621 72 224 8.0 14.0 0.00 0.00 0.00 50 1004.3
20260504234722 73 209 6.0 5.0 0.00 0.00 0.00 50 1004.3
20260504233820 72 207 6.0 10.0 0.00 0.00 0.00 50 1004.4
20260504232924 72 170 6.0 9.0 0.00 0.00 0.00 52 1004.6
20260504232023 71 179 6.0 12.0 0.00 0.00 0.00 55 1004.7
20260504231122 71 161 5.0 7.0 0.00 0.00 0.00 55 1004.9
20260504230221 71 190 6.0 9.0 0.00 0.00 0.00 54 1005.2
20260504225321 71 193 6.0 8.0 0.00 0.00 0.00 55 1005.1
20260504224422 71 166 8.0 12.0 0.00 0.00 0.00 55 1005.1
20260504223521 71 173 6.0 10.0 0.00 0.00 0.00 55 1005.0
20260504222621 71 142 7.0 7.0 0.00 0.00 0.00 54 1005.3
20260504221721 70 169 5.0 7.0 0.00 0.00 0.00 57 1005.4
20260504220822 69 186 3.0 5.0 0.00 0.00 0.00 59 1005.4
20260504215920 69 206 6.0 8.0 0.00 0.00 0.00 60 1005.5
20260504215022 69 194 7.0 9.0 0.00 0.00 0.00 60 1005.5
20260504214120 68 157 5.0 9.0 0.00 0.00 0.00 62 1005.4
20260504213221 68 193 7.0 10.0 0.00 0.00 0.00 63 1005.8
20260504212321 67 153 7.0 12.0 0.00 0.00 0.00 64 1005.7
20260504211421 66 146 6.0 8.0 0.00 0.00 0.00 67 1005.8
20260504210521 66 162 3.0 5.0 0.00 0.00 0.00 67 1005.9
20260504205621 66 163 5.0 6.0 0.00 0.00 0.00 66 1005.9
20260504204721 67 217 7.0 9.0 0.00 0.00 0.00 62 1006.5
20260504203822 68 219 6.0 9.0 0.00 0.00 0.00 59 1006.4
20260504202920 67 247 7.0 13.0 0.00 0.00 0.00 59 1005.8
20260504202020 68 272 9.0 20.0 0.00 0.00 0.00 58 1006.4
20260504201122 70 283 7.0 14.0 0.00 0.00 0.00 56 1006.4
20260504200220 69 260 5.0 8.0 0.00 0.00 0.00 55 1006.3
20260504195320 68 256 8.0 9.0 0.00 0.00 0.00 55 1006.8
20260504194422 68 271 7.0 14.0 0.00 0.00 0.00 58 1007.3
20260504193521 69 254 9.0 20.0 0.00 0.00 0.00 60 1007.4
20260504192621 69 252 8.0 8.0 0.00 0.00 0.00 60 1007.4
20260504191722 69 228 9.0 13.0 0.00 0.00 0.00 61 1007.4
20260504190820 69 202 9.0 16.0 0.00 0.00 0.00 60 1007.6
20260504185920 69 195 8.0 20.0 0.00 0.00 0.00 60 1007.6
20260504185020 69 214 9.0 16.0 0.00 0.00 0.00 59 1007.4
20260504184217 69 222 8.0 10.0 0.00 0.00 0.00 60 1007.2
20260504182321 69 193 10.0 15.0 0.00 0.00 0.00 61 1007.5
20260504181420 69 180 12.0 21.0 0.00 0.00 0.00 61 1007.3
20260504180521 69 212 6.0 8.0 0.00 0.00 0.00 62 1007.6
20260504175619 69 221 8.0 12.0 0.00 0.00 0.00 61 1007.6
20260504174721 69 211 9.0 20.0 0.00 0.00 0.00 60 1007.7
20260504173820 69 242 9.0 16.0 0.00 0.00 0.00 60 1007.5
20260504172920 70 209 12.0 20.0 0.00 0.00 0.00 59 1007.4
20260504172021 70 259 8.0 14.0 0.00 0.00 0.00 61 1007.4
20260504171120 69 218 10.0 16.0 0.00 0.00 0.00 59 1007.2
20260504170223 70 207 9.0 13.0 0.00 0.00 0.00 59 1007.6
20260504150521 65 258 5.0 9.0 0.00 0.00 0.00 66 1008.2
20260504141121 61 215 3.0 7.0 0.00 0.00 0.00 70 1008.6
20260504140220 61 212 5.0 5.0 0.00 0.00 0.00 69 1008.8
20260504130819 57 183 5.0 9.0 0.00 0.00 0.00 72 1008.7
20260504110221 51 153 3.0 3.0 0.00 0.00 0.00 71 1009.1
20260504081121 52 153 5.0 5.0 0.00 0.00 0.00 68 1010.2
20260504080220 51 141 3.0 6.0 0.00 0.00 0.00 68 1010.4
20260504050221 53 142 5.0 8.0 0.00 0.00 0.00 64 1012.0
20260504045320 53 136 3.0 7.0 0.00 0.00 0.00 64 1012.0
20260504044421 53 158 6.0 7.0 0.00 0.00 0.00 64 1012.0
20260504043520 53 159 3.0 5.0 0.00 0.00 0.00 64 1012.1
20260504042620 53 138 2.0 5.0 0.00 0.00 0.00 63 1012.2
20260504041720 53 173 6.0 12.0 0.00 0.00 0.00 63 1012.3
20260504040819 54 130 2.0 3.0 0.00 0.00 0.00 64 1012.4
20260504035920 54 147 5.0 7.0 0.00 0.00 0.00 63 1012.5
20260504035022 54 132 3.0 5.0 0.00 0.00 0.00 62 1012.6
20260504034120 54 168 1.0 3.0 0.00 0.00 0.00 62 1012.7
20260504033220 55 133 3.0 6.0 0.00 0.00 0.00 61 1012.8
20260504032320 55 164 3.0 5.0 0.00 0.00 0.00 61 1012.9
20260504031420 55 144 6.0 8.0 0.00 0.00 0.00 60 1012.9
20260504030520 55 140 5.0 6.0 0.00 0.00 0.00 60 1012.8
20260504025620 55 145 3.0 5.0 0.00 0.00 0.00 59 1013.0
20260504024719 55 168 3.0 9.0 0.00 0.00 0.00 59 1013.0
20260504023821 55 152 3.0 3.0 0.00 0.00 0.00 58 1013.1
20260504022921 56 156 3.0 6.0 0.00 0.00 0.00 57 1013.2
20260504022027 56 161 2.0 5.0 0.00 0.00 0.00 57 1013.2
20260504022020 56 161 2.0 5.0 0.00 0.00 0.00 57 1013.2
20260504021119 56 155 2.0 3.0 0.00 0.00 0.00 55 1013.3
20260504020219 56 135 2.0 3.0 0.00 0.00 0.00 55 1013.3
20260504015319 56 157 1.0 3.0 0.00 0.00 0.00 55 1013.2
20260504014420 56 149 6.0 6.0 0.00 0.00 0.00 54 1013.3
20260504013519 56 164 3.0 7.0 0.00 0.00 0.00 53 1013.3
20260504012620 56 187 2.0 3.0 0.00 0.00 0.00 53 1013.2
20260504011720 56 162 3.0 7.0 0.00 0.00 0.00 53 1013.4
20260504010819 56 157 2.0 3.0 0.00 0.00 0.00 53 1013.3
20260504005920 56 160 2.0 3.0 0.00 0.00 0.00 53 1013.2
20260504005019 57 160 1.0 3.0 0.00 0.00 0.00 53 1013.3